Regional Weather Roundup
Issued by NWS Goodland, KS

Home | Current Version | Previous Version | Graphics & Text | Print | Product List | Glossary On
Versions: 1 2 3 4 5 6 7 8 9 10 11 12 13 14 15 16 17 18 19 20 21 22 23 24 25 26 27 28 29 30 31 32 33 34 35 36 37 38 39 40 41 42 43 44 45 46 47 48 49 50
000
ASUS43 KGLD 041508
RWRGLD

GOODLAND FORECAST AREA HOURLY WEATHER ROUNDUP
NATIONAL WEATHER SERVICE GOODLAND KS
900 AM MDT TUE AUG 04 2015

...OFFICIAL OBSERVATIONS...

CITY           SKY/WX    TMP DP  RH WIND       PRES   REMARKS
GOODLAND KS    SUNNY     77  64  64 S5        29.99S
HILL CITY KS   CLOUDY    76  69  79 E8        29.95S
IMPERIAL NEB   PTSUNNY   73  65  75 E10       29.98F
MCCOOK NEB     CLOUDY    70  68  93 E12       29.95F FOG
AKRON CO       SUNNY     71  54  54 N12       30.05R
BURLINGTON CO  SUNNY     74  57  55 SW10      30.02R
LIMON CO       SUNNY     77  45  32 N15G23    30.09R
$$

...UNOFFICIAL OBSERVATIONS...

CITY           SKY/WX    TMP DP  RH WIND       PRES   REMARKS
COLBY KS       SUNNY     77  70  78 S6        29.98F
NORTON KS      MOSUNNY   75  64  69 E9        29.94F
SHARON SPRINGS   N/A     76  66  71 CALM        N/A
KIT CARSON CO    N/A     71  59  66 MISG        N/A
YUMA CO          N/A     71  60  69 N5          N/A
$$



USA.gov is the U.S. government's official web portal to all federal, state and local government web resources and services.